Overview Statistics Trail Chart Weather Telemetry Raw packets
 

This is the latest recevied weather packets stored in our database for station/object K5MGY. If no packets are shown the sender has not sent any weather packets the latest 10 day(s).

<< 109 110 111 112 113 114 >>
Time Temp. Humidity Pressure Rain* Wind** Luminosity Snow
1787779582 37.22° C 43% 1037.3 hPa 0 mm - 108 W/m² -
1787779282 37.22° C 44% 1037.5 hPa 0 mm - 124 W/m² -
1787778976 36.67° C 44% 1037.4 hPa 0 mm - 270 W/m² -
1787778672 36.67° C 44% 1037.8 hPa 0 mm - 345 W/m² -
1787778368 36.67° C 45% 1037.8 hPa 0 mm - 182 W/m² -
1787778064 36.67° C 44% 1038 hPa 0 mm - 417 W/m² -
1787777763 37.22° C 43% 1038 hPa 0 mm - 220 W/m² -
1787777460 37.78° C 43% 1037.9 hPa 0 mm - 295 W/m² -
1787777159 37.22° C 45% 1038.1 hPa 0 mm - 357 W/m² -
1787776858 37.22° C 45% 1038.1 hPa 0 mm - 496 W/m² -
1787776557 36.67° C 46% 1038.3 hPa 0 mm - 429 W/m² -
1787776256 36.11° C 47% 1038.6 hPa 0 mm - 236 W/m² -
1787775955 36.11° C 47% 1038.8 hPa 0 mm - 403 W/m² -
1787775650 35.56° C 48% 1038.4 hPa 0 mm - 594 W/m² -
1787775348 35° C 49% 1038.5 hPa 0 mm - 330 W/m² -
1787775043 35° C 49% 1038.5 hPa 0 mm - 186 W/m² -
1787774742 34.44° C 50% 1038.5 hPa 0 mm - 187 W/m² -
1787774437 34.44° C 51% 1038.5 hPa 0 mm - 283 W/m² -
1787774131 33.89° C 52% 1038.7 hPa 0 mm - 264 W/m² -
1787773830 33.89° C 52% 1038.8 hPa 0 mm - 233 W/m² -
1787773529 33.33° C 52% 1038.8 hPa 0 mm - 224 W/m² -
1787773225 33.33° C 54% 1039 hPa 0 mm - 159 W/m² -
1787772921 32.78° C 54% 1039 hPa 0 mm - 120 W/m² -
1787772616 32.78° C 54% 1039 hPa 0 mm - 90 W/m² -
1787772314 32.78° C 54% 1039.1 hPa 0 mm - 90 W/m² -

* Rain latest hour (hover to see other rain measurements)
** Current wind speed in m/s (hover to see current wind gust speed)